Miscellaneous Local Product
Issued by NWS Hastings, NE

Home | Current Version | Previous Version | Text Only | Print | Product List | Glossary Off
Versions: 1 2 3 4 5 6 7 8 9 10 11 12 13 14 15 16 17 18 19 20 21 22 23 24 25 26 27 28 29 30 31 32 33 34 35 36 37 38 39 40 41 42 43 44 45 46 47 48 49 50

000
AXUS43 KGID 161902
MISGRI

GID CWA HOURLY WEATHER ROUNDUP
NATIONAL WEATHER SERVICE HASTINGS NE
200 PM CDT TUE SEP 16 2014

NOTE: "FAIR" INDICATES FEW OR NO CLOUDS BELOW 12,000 FEET WITH NO
SIGNIFICANT WEATHER AND/OR OBSTRUCTIONS TO VISIBILITY.

...SOUTH CENTRAL NEBRASKA...

CITY           SKY/WX    TMP DP  RH WIND       PRES   REMARKS
GRAND ISLAND   SUNNY     70  53  54 S15       30.09F
HASTINGS       SUNNY     69  51  52 S9G21     30.08F
KEARNEY        CLOUDY    63  52  67 S13       30.09R
ORD            CLOUDY    67  55  65 S14       30.05F
YORK           SUNNY     66  50  55 S10       30.11F
AURORA         SUNNY     69  48  46 S12       30.10F
LEXINGTON      CLOUDY    64  56  77 S8        30.07F
HOLDREGE       CLOUDY    64  53  68 S17       30.07F
HEBRON         PTSUNNY   70  45  40 S9        30.12F

...NEBRASKA PANHANDLE...

CITY           SKY/WX    TMP DP  RH WIND       PRES   REMARKS
CHADRON        SUNNY     79  51  37 SW8       30.00F
ALLIANCE       SUNNY     78  50  37 NW10      30.04F
SCOTTSBLUFF    MOSUNNY   81  52  36 SW12      30.06F
SIDNEY         SUNNY     84  45  25 N13       30.07F

...WESTERN AND NORTH CENTRAL NEBRASKA...

CITY           SKY/WX    TMP DP  RH WIND       PRES   REMARKS
VALENTINE      SUNNY     75  55  49 W7        29.98F
AINSWORTH      SUNNY     71  55  56 S10G20    30.00F
ONEILL         MOSUNNY   69  56  62 S17       30.03F
BROKEN BOW     CLOUDY    66  54  65 S18G25    30.06F
IMPERIAL       SUNNY     79  54  41 SW13G18   30.02F
NORTH PLATTE   MOSUNNY   71  56  58 S14       30.03F
MCCOOK         MOSUNNY   73  56  54 S14G23    30.05F

...EASTERN NEBRASKA...

CITY           SKY/WX    TMP DP  RH WIND       PRES   REMARKS
NORFOLK        SUNNY     67  49  52 S14       30.09F
SO SIOUX CITY  SUNNY     67  48  50 VRB6      30.11F
TEKAMAH        SUNNY     67  47  48 S9        30.12F
ALBION         PTSUNNY   67  50  55 S12G17    30.09F
OMAHA EPPLEY   SUNNY     65  47  52 SE9       30.13F
OFFUTT AFB     SUNNY     66  54  66 SE10      30.13F
MILLARD        SUNNY     65  48  54 S8        30.12F
LINCOLN        SUNNY     68  46  45 SE9       30.13F
NEBRASKA CITY  SUNNY     65  40  39 SE6       30.14F
BEATRICE       SUNNY     67  46  47 S6        30.13F
FALLS CITY     SUNNY     69  50  50 MISG      30.14F

...NORTHERN KANSAS...

CITY           SKY/WX    TMP DP  RH WIND       PRES   REMARKS
GOODLAND       SUNNY     77  55  46 SW14G23   30.07F
HILL CITY      CLOUDY    69  56  62 S12G21    30.09F
NORTON         CLOUDY    70  52  52 SE14      30.08
PHILLIPSBURG   CLOUDY    66  54  63 SE12      30.10
SMITH CENTER   CLOUDY    64  52  63 SE13G18   30.11
BELOIT         CLOUDY    64  52  63 SE10      30.12
HAYS           CLOUDY    66  55  68 S14       30.12F
RUSSELL        CLOUDY    67  55  65 SE9       30.11F
CONCORDIA      CLOUDY    66  52  60 SE8       30.13F
SALINA         CLOUDY    68  51  54 S6        30.14F
TOPEKA         SUNNY     71  51  49 NE5       30.15F



USA.gov is the U.S. government's official web portal to all federal, state and local government web resources and services.